Overview Statistics Trail Chart Weather Telemetry Raw packets
 

This is the latest recevied weather packets stored in our database for station/object KN4AN. If no packets are shown the sender has not sent any weather packets the latest 10 day(s).

<< 65 66 67 68 69 70 71 >>
Time Temp. Humidity Pressure Rain* Wind** Luminosity Snow
1788090907 20° C 99% 1024 hPa 0 mm - 47 W/m² -
1788090602 20° C 99% 1024 hPa 0 mm - 44 W/m² -
1788090299 20° C 99% 1023.9 hPa 0 mm - 42 W/m² -
1788089998 19.44° C 99% 1023.7 hPa 0 mm - 36 W/m² -
1788089693 19.44° C 99% 1023.9 hPa 0 mm - 27 W/m² -
1788089389 19.44° C 99% 1023.7 hPa 0 mm - 26 W/m² -
1788089085 19.44° C 99% 1023.8 hPa 0 mm - 24 W/m² -
1788088780 18.89° C 99% 1023.7 hPa 0 mm - 18 W/m² -
1788088476 18.89° C 99% 1023.8 hPa 0 mm - 13 W/m² -
1788088171 18.89° C 98% 1023.7 hPa 0 mm - 10 W/m² -
1788087867 18.89° C 98% 1023.6 hPa 0 mm - 7 W/m² -
1788087566 18.33° C 98% 1023.5 hPa 0 mm - 6 W/m² -
1788087263 18.33° C 98% 1023.4 hPa 0 mm - 4 W/m² -
1788086958 18.33° C 98% 1023.2 hPa 0 mm - 3 W/m² -
1788086655 18.33° C 98% 1023.3 hPa 0 mm - 1 W/m² -
1788086354 18.33° C 98% 1023.1 hPa 0 mm - 0 W/m² -
1788086050 18.89° C 98% 1023.1 hPa 0 mm - 0 W/m² -
1788085748 18.89° C 98% 1023.1 hPa 0 mm - 0 W/m² -
1788085444 18.89° C 98% 1023.2 hPa 0 mm - 0 W/m² -
1788085140 18.89° C 98% 1022.9 hPa 0 mm - 0 W/m² -
1788084835 18.89° C 98% 1023 hPa 0 mm - 0 W/m² -
1788084534 18.89° C 98% 1022.7 hPa 0 mm - 0 W/m² -
1788084233 18.89° C 98% 1022.9 hPa 0 mm - 0 W/m² -
1788083932 18.89° C 98% 1022.7 hPa 0 mm - 0 W/m² -
1788083629 18.89° C 98% 1022.7 hPa 0 mm - 0 W/m² -

* Rain latest hour (hover to see other rain measurements)
** Current wind speed in m/s (hover to see current wind gust speed)